If you wish to contribute or participate in the discussions about articles you are invited to join SKYbrary as a registered user

 Actions

Holzdorf Air Base

From SKYbrary Wiki

ETSH
Airport
ICAO: ETSH
Summary
Name Holzdorf Air Base
Region Europe
Territory Germany DE.gif
Location Holzdorf, Saxony-Anhalt
Serving
Coordinates 51° 46' 4.33" N, 13° 10' 3.34" E
Runways
Designator Length Width Surface ROPS
9/27 2419 m7,936.352 ft
30 m98.425 ft
PEM /


METAR
Observation ETSH 260720Z 26004KT 0300 FZFG VV000 M02/M02 Q1020 RED
Station Holzdorf
Date/Time 26 January 2020 07:20:00
Wind direction 260°
Wind speed 04 kts
Lowest cloud amount n/a
Temperature
Dew point
Humidity 100%
QNH 1020 hPa
Weather condition n/a

Holzdorf Air Base

ICAO: ETSH IATA: ---

Description

Holzdorf Air Base is a military airfield operated by the German Air Force. It is located 3 km1.62 nm
3,000 m
9,842.52 ft
east of Holzdorf, Saxony-Anhalt.

Maps

Terrain

Loading map...

Airport Layout

Loading map...



Accidents & Serious Incidents at or in vicinity of ETSH

None on SKYbrary